User: anonymous   Login
Location: Unspecified
(0.0000°N, 0.0000°E)
Time: 20:59:32
(UTC+00:00)
Language:

DFH-1 - Orbit

View from above orbital plane
View from above orbital plane
View from above satellite
View from above satellite

Ground track
Ground track

The orbit data is extracted from the following two-line orbital elements,

1  4382U 70034A   21066.38733877  .00000006  00000-0  15213-4 0  9994
2  4382  68.4273  11.1731 1055315 267.1760  80.8272 13.08041126393077
Epoch (UTC): 07 March 2021 09:17:46
Eccentricity: 0.1055315
inclination: 68.4273°
perigee height: 428 km
apogee height: 2034 km
right ascension of ascending node: 11.1731°
argument of perigee: 267.1760°
revolutions per day: 13.08041126
mean anomaly at epoch: 80.8272°
orbit number at epoch: 39307

The dashed part of the orbit path shows where the satellite is in the earth's shadow,  

DLR